[[{"header":{"parameterUnit":"m.s-1","parameterCategory":1,"la1":30.2991,"la2":30.254,"lo1":-89.0895,"lo2":-89.0444,"dy":0.0017,"dx":0.0017,"nx":28,"ny":28,"refTime":"2024-07-31T21:00:00:Z","depth":0,"parameterNumber":2,"parameterNumberName":"U-component_of_WINDS"},"data":[0,0,0,0,0,0,0,0,0,0,0,0,0,0,0,0,0,0,0,0,0,0,0,0,0,0,0,0,0,0,0,0,0,0,0,0,0,0,0,0,0,0,0,0,0,0,0,0,0,0,0,0,0,0,0,0,0,0,2.5451,2.5452,0,2.5502,2.5503,2.5503,2.5449,2.5447,2.5445,2.5443,2.5494,2.5497,2.5501,0,0,0,0,0,0,0,0,0,0,0,0,0,2.5304,2.5307,2.5451,2.5452,2.5452,2.5502,2.5503,2.5504,2.5449,2.5447,2.5444,2.5442,2.5493,2.5497,2.5501,0,0,0,0,0,0,0,0,0,0,0,0,0,2.5363,2.5308,2.5451,2.5431,2.543,2.5502,2.5503,2.5504,2.545,2.5447,2.5443,2.5441,2.5492,2.5497,2.5502,2.5595,0,0,2.5517,2.5519,0,0,0,0,0,0,0,0,2.536,2.5369,2.5434,2.5433,2.5432,2.5466,2.547,2.5534,2.5451,2.5442,2.5443,2.5439,2.5487,2.5492,2.5509,2.5597,2.56,2.5517,2.552,2.5522,2.5524,0,0,0,0,0,0,0,2.5356,2.5366,2.5471,2.5435,2.5433,2.5419,2.5424,2.5482,2.5482,2.5443,2.5439,2.5446,2.5486,2.5504,2.551,2.56,2.5517,2.5521,2.5525,2.5526,2.5765,2.5768,0,0,0,0,0,0,2.5354,2.5363,2.547,2.5473,2.5387,2.5424,2.543,2.5458,2.5481,2.5481,2.5448,2.5443,2.5497,2.5504,2.5511,2.562,2.5522,2.5527,2.553,2.5762,2.5766,2.577,0,0,0,0,0,0,2.5351,2.5364,2.5468,2.5417,2.5429,2.543,2.5462,2.5461,2.5479,2.5485,2.5485,2.5467,2.5495,2.5504,2.5574,2.5621,2.5529,2.5534,2.5758,2.5763,2.5768,2.5839,0,0,0,0,0,0,2.5347,2.5364,2.54,2.5418,2.5432,2.553,2.5465,2.5464,2.5488,2.5481,2.5503,2.5503,2.5493,2.5567,2.5579,2.5626,2.5538,2.5754,2.576,2.5766,2.5833,2.5846,2.5858,0,0,0,0,0,2.5342,2.5418,2.5402,2.5415,2.5477,2.5533,2.5541,2.5528,2.5492,2.5527,2.5531,2.5502,2.5614,2.5574,2.5588,2.5637,2.5751,2.5758,2.5766,2.5827,2.5843,2.5857,0,0,0,0,0,0,2.5406,2.542,2.5402,2.5487,2.5509,2.5524,2.5569,2.5547,2.558,2.5572,2.5555,2.556,2.5634,2.5643,2.5598,2.5727,2.5676,2.5687,2.5718,2.5734,2.5746,2.5741,2.5542,0,0,0,0,0,2.5429,2.5474,2.5485,2.5558,2.557,2.5568,2.5592,2.558,2.5602,2.5611,2.562,2.5643,2.5682,2.5709,2.5746,2.5834,2.5837,2.5875,2.5887,2.5897,2.5906,2.595,2.5966,2.5794,2.5794,2.5794,0,0,2.5479,2.5493,2.5522,2.5571,2.5587,2.5632,2.5576,2.5627,2.566,2.5619,2.5684,2.5692,2.5716,2.5794,2.5829,2.5804,2.5954,2.5907,2.5915,2.5918,2.5959,2.5976,2.599,2.5799,2.5799,2.5798,0,0,2.5592,2.5608,2.5669,2.5686,2.5711,2.5708,2.5723,2.5741,2.5744,2.581,2.5779,2.5818,2.5888,2.5905,2.5923,2.6041,2.6015,2.6054,2.6118,2.6162,2.6175,2.6187,2.6226,2.6241,2.6063,2.6063,2.6064,0,2.565,2.5718,2.5704,2.5756,2.5778,2.5743,2.5803,2.5821,2.5856,2.5871,2.5843,2.5928,2.5942,2.6022,2.6051,2.6068,2.6082,2.6051,2.6175,2.6186,2.6197,2.6234,2.6249,2.6068,2.6067,2.6067,2.6066,0,2.5787,2.5834,2.5881,2.5915,2.5942,2.5999,2.5992,2.6021,2.6007,2.6007,2.6073,2.6089,2.6127,2.6146,2.6133,2.6224,2.6207,2.6177,2.6125,2.6218,2.6252,2.6267,2.6074,2.6072,2.6071,2.607,0,0,2.5941,2.5966,2.5983,2.5997,2.6021,2.6057,2.6111,2.6149,2.6172,2.6198,2.6242,2.6301,2.6273,2.6293,2.6282,2.632,2.6409,2.6285,2.6285,2.6305,2.6507,2.6527,2.6544,2.6393,2.6395,2.6398,2.6504,0,2.6052,2.6146,2.6134,2.6224,2.6266,2.6233,2.628,2.6299,2.6301,2.6336,2.6338,2.6379,2.634,2.6351,2.6388,2.6391,2.6449,2.6383,2.6431,2.6433,2.6423,2.6563,2.6585,2.6685,2.6518,2.652,2.6522,0,2.6194,2.6224,2.6318,2.6333,2.635,2.6393,2.6424,2.646,2.648,2.6478,2.65,2.6482,2.6535,2.6483,2.6555,2.651,2.6529,2.6534,2.6537,2.6539,2.6481,2.6566,2.6717,2.6731,2.6543,2.6542,2.654,0,2.6293,2.6357,2.642,2.6434,2.6454,2.6484,2.6494,2.6511,2.6534,2.6562,2.6576,2.661,2.6629,2.6655,2.6645,2.6609,2.6718,2.6666,2.6716,2.6716,2.6738,2.6737,2.6892,2.6756,2.6755,2.6755,2.6755,0,2.6417,2.6475,2.6465,2.6504,2.6567,2.6553,2.6615,2.6621,2.6637,2.6675,2.6649,2.6685,2.6672,2.6707,2.67,2.6759,2.6768,2.6767,2.6763,2.6767,2.6767,2.6778,2.677,2.6759,2.6758,2.6757,2.6757,0,2.6538,2.6534,2.66,2.6613,2.6618,2.6664,2.6674,2.671,2.671,2.6758,2.6769,2.6768,2.6808,2.6801,2.6846,2.6841,2.6913,2.6903,2.6906,2.6903,2.6952,2.6946,2.7117,2.7137,2.6991,2.6992,2.6993,0,2.6616,2.6659,2.6677,2.67,2.6712,2.6751,2.6773,2.6761,2.6785,2.681,2.6843,2.688,2.6909,2.6975,2.6977,2.701,2.6999,2.7057,2.7004,2.7006,2.6996,2.6993,2.6996,2.7066,2.7068,2.7069,2.7071,0,2.6754,2.6749,2.6782,2.6815,2.6842,2.6867,2.6889,2.691,2.6899,2.6927,2.6968,2.699,2.7035,2.7072,2.7103,2.7112,2.7089,2.7087,2.71,2.7103,2.7102,2.71,2.6932,2.7083,2.7082,2.7081,2.708,2.708,2.6854,2.689,2.6907,2.6944,2.6959,2.698,2.7014,2.7017,2.705,2.7085,2.7076,2.7121,2.7138,2.7177,2.719,2.7224,2.7202,2.7221,2.7226,2.723,2.7234,2.7099,2.723,2.7229,2.7229,2.7229,2.7228,0,2.6988,2.6997,2.7031,2.7063,2.7092,2.7068,2.7091,2.7116,2.7156,2.7175,2.7203,2.7248,2.7283,2.7289,2.7321,2.7348,2.7338,2.7356,2.7353,2.7355,2.7253,2.7237,2.7364,2.7364,2.7364,2.7363,2.7363,2.7363,2.7061,2.7119,2.7116,2.7182,2.719,2.7234,2.7249,2.7267,2.7281,2.7332,2.7361,2.7364,2.7377,2.741,2.744,2.7441,2.7453,2.7475,2.7471,2.7376,2.7362,2.7349,2.7334,2.7479,2.7479,2.7569,2.757,2.7571]},{"header":{"parameterUnit":"m.s-1","parameterCategory":1,"la1":30.2991,"la2":30.254,"lo1":-89.0895,"lo2":-89.0444,"dy":0.0017,"dx":0.0017,"nx":28,"ny":28,"refTime":"2024-07-31T21:00:00:Z","depth":0,"parameterNumber":3,"parameterNumberName":"V-component_of_WINDS"},"data":[0,0,0,0,0,0,0,0,0,0,0,0,0,0,0,0,0,0,0,0,0,0,0,0,0,0,0,0,0,0,0,0,0,0,0,0,0,0,0,0,0,0,0,0,0,0,0,0,0,0,0,0,0,0,0,0,0,0,0.5207,0.5208,0,0.5305,0.5306,0.5307,0.5338,0.5338,0.5338,0.5337,0.5441,0.5444,0.5447,0,0,0,0,0,0,0,0,0,0,0,0,0,0.5049,0.5052,0.5207,0.5208,0.521,0.5305,0.5306,0.5308,0.5339,0.5338,0.5337,0.5337,0.5439,0.5443,0.5447,0,0,0,0,0,0,0,0,0,0,0,0,0,0.5129,0.5052,0.5207,0.5236,0.524,0.5305,0.5306,0.5308,0.5339,0.5338,0.5337,0.5337,0.5438,0.5443,0.5448,0.5491,0,0,0.5462,0.5464,0,0,0,0,0,0,0,0,0.5125,0.5135,0.5231,0.5235,0.5239,0.5309,0.5288,0.5369,0.5339,0.5301,0.5337,0.5336,0.5397,0.5406,0.5426,0.5496,0.55,0.5463,0.5465,0.5468,0.5469,0,0,0,0,0,0,0,0.5119,0.5131,0.5246,0.5232,0.5237,0.5245,0.5256,0.5304,0.5352,0.5305,0.5307,0.5318,0.5399,0.5421,0.5428,0.5502,0.5462,0.5467,0.547,0.5472,0.5611,0.5612,0,0,0,0,0,0,0.5108,0.5126,0.5243,0.5249,0.5179,0.5249,0.5261,0.5287,0.5352,0.5361,0.5318,0.5319,0.5413,0.5423,0.5432,0.5486,0.5467,0.5472,0.5475,0.561,0.5611,0.5612,0,0,0,0,0,0,0.5105,0.5118,0.5239,0.5188,0.5204,0.5252,0.5282,0.5289,0.5311,0.5362,0.5371,0.5331,0.5413,0.5425,0.5475,0.549,0.5474,0.5478,0.5609,0.561,0.5611,0.5595,0,0,0,0,0,0,0.51,0.5117,0.5134,0.5188,0.5207,0.528,0.5282,0.5292,0.5318,0.532,0.5377,0.5385,0.5413,0.5468,0.548,0.5497,0.5482,0.5608,0.561,0.5611,0.5595,0.5596,0.5597,0,0,0,0,0,0.5094,0.5126,0.5134,0.5148,0.5228,0.5281,0.5292,0.5322,0.5319,0.5337,0.537,0.5384,0.5486,0.5473,0.5487,0.5505,0.5607,0.5609,0.5611,0.5594,0.5596,0.5597,0,0,0,0,0,0,0.5074,0.5134,0.5144,0.5194,0.5232,0.5286,0.5309,0.5323,0.5363,0.5363,0.54,0.5413,0.546,0.5488,0.5472,0.5549,0.5547,0.5552,0.553,0.5532,0.5533,0.5526,0.5486,0,0,0,0,0,0.5074,0.5111,0.5162,0.5202,0.522,0.5261,0.5285,0.5305,0.5347,0.5363,0.54,0.544,0.5481,0.5508,0.5549,0.5598,0.5611,0.5617,0.5618,0.5619,0.5623,0.565,0.5654,0.5618,0.5618,0.5618,0,0,0.5078,0.5115,0.5137,0.5199,0.5231,0.5268,0.5275,0.5315,0.5343,0.537,0.5419,0.5447,0.5494,0.5544,0.5568,0.5568,0.5635,0.5621,0.5621,0.5625,0.5653,0.5656,0.5659,0.5619,0.5619,0.5619,0,0,0.5103,0.5135,0.5171,0.5202,0.5249,0.5275,0.5284,0.5336,0.5355,0.5404,0.5424,0.5459,0.553,0.5562,0.5588,0.5622,0.5637,0.5635,0.564,0.5667,0.5669,0.5672,0.5684,0.5688,0.5638,0.5638,0.5638,0,0.5101,0.5158,0.5188,0.5226,0.5253,0.5276,0.5313,0.5342,0.5401,0.5419,0.5418,0.5505,0.5539,0.5596,0.5604,0.5624,0.5635,0.5629,0.5666,0.5669,0.5672,0.5684,0.5689,0.5638,0.5638,0.5638,0.5638,0,0.5153,0.5192,0.5216,0.527,0.5299,0.5336,0.5372,0.5398,0.5415,0.5441,0.5491,0.5532,0.5581,0.5595,0.5613,0.5655,0.5653,0.5659,0.5658,0.5675,0.5687,0.5691,0.5637,0.5637,0.5637,0.5637,0,0,0.517,0.5238,0.5246,0.5271,0.5323,0.5355,0.5392,0.5439,0.546,0.5499,0.5532,0.559,0.5595,0.5624,0.5645,0.5668,0.5692,0.5671,0.5672,0.5673,0.574,0.5736,0.5741,0.5701,0.5702,0.5703,0.5736,0,0.5202,0.527,0.5297,0.5353,0.5389,0.541,0.5443,0.5479,0.5505,0.5539,0.5568,0.5608,0.5611,0.5629,0.5652,0.5684,0.5706,0.5682,0.5733,0.5734,0.5721,0.5747,0.5743,0.5773,0.5741,0.5742,0.5742,0,0.5249,0.5286,0.5345,0.5392,0.5408,0.5437,0.5481,0.5513,0.5554,0.5571,0.5602,0.5622,0.5662,0.5657,0.5714,0.5697,0.5719,0.5737,0.5739,0.5746,0.574,0.5755,0.5783,0.5787,0.575,0.5749,0.5749,0,0.5255,0.532,0.5364,0.5384,0.5439,0.5459,0.5483,0.5523,0.5549,0.5587,0.5604,0.5647,0.5671,0.5704,0.5734,0.5728,0.5788,0.5786,0.5803,0.5803,0.5816,0.5815,0.5849,0.5829,0.5829,0.5829,0.5829,0,0.5288,0.5324,0.5367,0.5393,0.5433,0.5463,0.5502,0.5528,0.5563,0.5595,0.5616,0.5646,0.5684,0.5719,0.5743,0.5786,0.5796,0.5811,0.5817,0.581,0.5808,0.5825,0.5824,0.583,0.583,0.583,0.583,0,0.5303,0.5333,0.5382,0.5429,0.5442,0.5469,0.551,0.5537,0.5562,0.5602,0.5614,0.5654,0.5696,0.5728,0.5784,0.58,0.5845,0.5851,0.5831,0.5834,0.585,0.5848,0.5896,0.5904,0.5879,0.5879,0.5879,0,0.5322,0.5349,0.5399,0.5421,0.5445,0.5481,0.5506,0.5537,0.5563,0.561,0.5631,0.5674,0.571,0.5775,0.581,0.5852,0.586,0.5874,0.5867,0.5857,0.586,0.5858,0.5861,0.5875,0.5875,0.5875,0.5875,0,0.5354,0.5367,0.5402,0.5442,0.5472,0.5505,0.5539,0.5556,0.5593,0.5621,0.5663,0.569,0.5745,0.5788,0.5833,0.5858,0.5873,0.5877,0.5883,0.5876,0.5863,0.587,0.5833,0.5876,0.5876,0.5876,0.5876,0.5876,0.5372,0.5396,0.5434,0.5473,0.5501,0.5531,0.5558,0.5586,0.5621,0.5667,0.5683,0.5726,0.5765,0.5827,0.5852,0.5887,0.5888,0.5897,0.59,0.5902,0.5901,0.5856,0.5895,0.5895,0.5895,0.5895,0.5895,0,0.5404,0.5429,0.5464,0.5509,0.5539,0.5548,0.5586,0.5611,0.5648,0.5682,0.5717,0.5764,0.5805,0.5842,0.5884,0.5904,0.5912,0.5915,0.5914,0.5919,0.5897,0.5888,0.5908,0.5908,0.5908,0.5908,0.5908,0.5908,0.5424,0.5466,0.5483,0.5539,0.5564,0.5605,0.5626,0.5654,0.5681,0.5733,0.5766,0.5789,0.5825,0.5869,0.5907,0.5917,0.5932,0.5932,0.5944,0.5923,0.5921,0.592,0.5911,0.5935,0.5935,0.5963,0.5963,0.5963]}]]